TimeCST,TemperatureF,Dew PointF,Humidity,Sea Level PressureIn,VisibilityMPH,Wind Direction,Wind SpeedMPH,Gust SpeedMPH,PrecipitationIn,Events,Conditions,WindDirDegrees,DateUTC
12:15 AM,13.8,10.0,85,29.95,2.0,NE,9.2,-,N/A,Snow,Light Snow,50,2013-12-20 06:15:00
12:35 AM,13.8,10.0,85,29.95,2.5,NE,11.5,-,N/A,Snow,Light Snow,50,2013-12-20 06:35:00
12:55 AM,13.6,9.9,85,29.95,7.0,NNE,10.4,-,N/A,Snow,Light Snow,30,2013-12-20 06:55:00
1:15 AM,13.8,9.5,83,29.95,7.0,NE,11.5,-,N/A,Snow,Light Snow,40,2013-12-20 07:15:00
1:35 AM,13.8,9.5,83,29.95,7.0,NNE,9.2,-,N/A,Snow,Light Snow,30,2013-12-20 07:35:00
1:55 AM,13.6,9.3,83,29.95,7.0,NE,9.2,-,N/A,Snow,Light Snow,40,2013-12-20 07:55:00
2:15 AM,13.6,9.3,83,29.95,4.0,NE,10.4,-,N/A,Snow,Light Snow,50,2013-12-20 08:15:00
2:35 AM,13.6,9.3,83,29.95,4.0,NE,9.2,-,N/A,Snow,Light Snow,50,2013-12-20 08:35:00
2:55 AM,13.6,9.5,84,29.95,2.0,ENE,11.5,-,N/A,Snow,Light Snow,60,2013-12-20 08:55:00
3:15 AM,13.6,9.5,84,29.94,4.0,NE,11.5,16.1,N/A,Snow,Light Snow,50,2013-12-20 09:15:00
3:35 AM,13.6,9.5,84,29.94,7.0,NE,11.5,16.1,N/A,Snow,Light Snow,40,2013-12-20 09:35:00
3:55 AM,13.6,9.3,83,29.93,5.0,NE,11.5,18.4,N/A,Snow,Light Snow,50,2013-12-20 09:55:00
4:15 AM,13.8,9.5,83,29.91,7.0,NE,10.4,-,N/A,Snow,Light Snow,50,2013-12-20 10:15:00
4:35 AM,13.6,9.1,82,29.91,10.0,NE,10.4,-,N/A,,Scattered Clouds,50,2013-12-20 10:35:00
4:55 AM,13.6,9.0,82,29.91,10.0,NE,10.4,-,N/A,,Clear,50,2013-12-20 10:55:00
5:15 AM,13.5,8.8,82,29.91,10.0,NE,9.2,-,N/A,,Mostly Cloudy,50,2013-12-20 11:15:00
5:35 AM,13.5,8.6,81,29.92,10.0,NE,9.2,-,N/A,,Overcast,50,2013-12-20 11:35:00
5:55 AM,13.5,8.8,82,29.92,10.0,NE,9.2,-,N/A,,Overcast,50,2013-12-20 11:55:00
6:15 AM,13.6,9.1,82,29.92,10.0,NE,8.1,-,N/A,,Overcast,50,2013-12-20 12:15:00
6:35 AM,13.6,9.0,82,29.93,10.0,NE,8.1,-,N/A,,Overcast,50,2013-12-20 12:35:00
6:55 AM,13.6,9.0,82,29.93,10.0,NE,8.1,-,N/A,,Overcast,50,2013-12-20 12:55:00
7:15 AM,13.6,9.1,82,29.92,10.0,NE,8.1,-,N/A,,Overcast,50,2013-12-20 13:15:00
7:35 AM,13.6,9.1,82,29.92,10.0,NE,9.2,-,N/A,,Overcast,50,2013-12-20 13:35:00
7:55 AM,13.6,9.1,82,29.91,10.0,NE,8.1,-,N/A,,Overcast,50,2013-12-20 13:55:00
8:15 AM,13.8,9.3,82,29.91,10.0,NE,8.1,-,N/A,,Overcast,50,2013-12-20 14:15:00
8:35 AM,14.0,9.5,82,29.91,10.0,NE,9.2,-,N/A,,Overcast,50,2013-12-20 14:35:00
8:55 AM,14.4,9.5,81,29.91,10.0,NE,8.1,-,N/A,,Overcast,50,2013-12-20 14:55:00
9:15 AM,14.7,9.7,80,29.91,10.0,ENE,8.1,-,N/A,,Overcast,60,2013-12-20 15:15:00
9:35 AM,15.4,10.4,80,29.91,10.0,NE,10.4,-,N/A,,Overcast,50,2013-12-20 15:35:00
9:55 AM,15.6,10.4,80,29.92,10.0,ENE,6.9,-,N/A,,Overcast,60,2013-12-20 15:55:00
10:15 AM,15.8,10.4,79,29.92,10.0,NE,8.1,-,N/A,,Overcast,50,2013-12-20 16:15:00
10:35 AM,16.3,10.8,79,29.91,10.0,ENE,8.1,-,N/A,,Overcast,70,2013-12-20 16:35:00
10:55 AM,17.1,11.1,77,29.90,10.0,ENE,6.9,-,N/A,,Overcast,60,2013-12-20 16:55:00
11:15 AM,17.2,11.1,77,29.89,10.0,ENE,5.8,-,N/A,,Overcast,60,2013-12-20 17:15:00
11:35 AM,17.4,11.3,77,29.88,10.0,ENE,6.9,-,N/A,,Overcast,60,2013-12-20 17:35:00
11:55 AM,17.6,11.5,77,29.87,10.0,ENE,5.8,-,N/A,,Overcast,70,2013-12-20 17:55:00
12:15 PM,17.8,11.8,78,29.86,7.0,ENE,6.9,-,N/A,Snow,Light Snow,60,2013-12-20 18:15:00
12:35 PM,18.0,12.0,78,29.86,7.0,NE,6.9,-,N/A,Snow,Light Snow,50,2013-12-20 18:35:00
12:55 PM,18.1,12.6,79,29.87,5.0,NE,5.8,-,N/A,Snow,Light Snow,50,2013-12-20 18:55:00
1:15 PM,18.3,12.9,79,29.85,3.0,NE,6.9,-,N/A,Snow,Light Snow,50,2013-12-20 19:15:00
1:35 PM,18.1,13.1,81,29.85,5.0,NNE,6.9,-,N/A,Snow,Light Snow,20,2013-12-20 19:35:00
1:55 PM,18.1,13.3,81,29.84,4.0,NNE,5.8,-,N/A,Snow,Light Snow,30,2013-12-20 19:55:00
2:15 PM,18.1,13.3,81,29.83,4.0,NE,6.9,-,N/A,Snow,Light Snow,40,2013-12-20 20:15:00
2:35 PM,18.1,13.6,83,29.84,3.0,NNE,5.8,-,N/A,Snow,Light Snow,20,2013-12-20 20:35:00
2:55 PM,18.1,13.6,83,29.83,5.0,NNE,5.8,-,N/A,Snow,Light Snow,30,2013-12-20 20:55:00
3:15 PM,18.3,14.0,83,29.84,7.0,NNE,4.6,-,N/A,Snow,Light Snow,30,2013-12-20 21:15:00
3:35 PM,18.1,14.0,84,29.85,5.0,NNE,5.8,-,N/A,Snow,Light Snow,20,2013-12-20 21:35:00
3:55 PM,18.1,14.0,84,29.85,7.0,NNE,6.9,-,N/A,Snow,Light Snow,20,2013-12-20 21:55:00
4:15 PM,18.1,14.4,85,29.84,10.0,NNE,6.9,-,N/A,,Overcast,20,2013-12-20 22:15:00
4:35 PM,18.1,14.4,85,29.83,10.0,NNE,5.8,-,N/A,,Overcast,20,2013-12-20 22:35:00
4:55 PM,18.1,14.5,86,29.83,10.0,NNE,4.6,-,N/A,Snow,Light Snow,30,2013-12-20 22:55:00
5:15 PM,18.3,14.7,86,29.83,10.0,NE,4.6,-,N/A,Snow,Light Snow,40,2013-12-20 23:15:00
5:35 PM,18.1,14.7,86,29.83,10.0,NNE,4.6,-,N/A,Snow,Light Snow,30,2013-12-20 23:35:00
5:55 PM,18.3,14.9,86,29.84,10.0,NE,4.6,-,N/A,Snow,Light Snow,40,2013-12-20 23:55:00
6:15 PM,18.1,14.9,87,29.83,10.0,NE,3.5,-,N/A,Snow,Light Snow,40,2013-12-21 00:15:00
6:35 PM,18.3,14.9,86,29.84,10.0,NE,3.5,-,N/A,Snow,Light Snow,40,2013-12-21 00:35:00
6:55 PM,18.3,14.9,86,29.85,10.0,Calm,Calm,-,N/A,Snow,Light Snow,0,2013-12-21 00:55:00
7:15 PM,18.3,15.3,88,29.84,10.0,Calm,Calm,-,N/A,Snow,Light Snow,0,2013-12-21 01:15:00
7:35 PM,18.3,15.3,88,29.83,10.0,Calm,Calm,-,N/A,,Overcast,0,2013-12-21 01:35:00
7:55 PM,18.3,15.4,89,29.83,10.0,Calm,Calm,-,N/A,,Overcast,0,2013-12-21 01:55:00
8:15 PM,18.5,15.3,87,29.82,10.0,East,3.5,-,N/A,Snow,Light Snow,100,2013-12-21 02:15:00
8:35 PM,18.9,15.4,87,29.82,10.0,Calm,Calm,-,N/A,Snow,Light Snow,0,2013-12-21 02:35:00
8:55 PM,18.9,15.6,87,29.82,10.0,ENE,3.5,-,N/A,Snow,Light Snow,70,2013-12-21 02:55:00
9:15 PM,18.7,15.6,88,29.82,10.0,ENE,3.5,-,N/A,,Overcast,70,2013-12-21 03:15:00
9:35 PM,18.7,15.6,88,29.81,10.0,Calm,Calm,-,N/A,Snow,Light Snow,0,2013-12-21 03:35:00
9:55 PM,18.5,15.6,89,29.80,10.0,ENE,3.5,-,N/A,,Overcast,60,2013-12-21 03:55:00
10:15 PM,18.5,15.6,89,29.81,10.0,NE,3.5,-,N/A,,Overcast,40,2013-12-21 04:15:00
10:35 PM,18.5,15.6,89,29.80,10.0,Calm,Calm,-,N/A,,Overcast,0,2013-12-21 04:35:00
10:55 PM,18.5,15.8,89,29.79,10.0,Calm,Calm,-,N/A,,Overcast,0,2013-12-21 04:55:00
11:15 PM,18.5,15.6,89,29.78,10.0,ENE,3.5,-,N/A,,Overcast,70,2013-12-21 05:15:00
11:35 PM,18.5,15.8,89,29.80,10.0,Calm,Calm,-,N/A,,Overcast,0,2013-12-21 05:35:00
11:55 PM,18.5,15.8,89,29.79,10.0,Calm,Calm,-,N/A,,Overcast,0,2013-12-21 05:55:00